,,PA_Meas_PMT16A,,PR_Meas_QMR101_102,,RH_Meas_QMH101,,SR_Meas_QMS101,,TA_Meas_QMH101,,GenWind,,GenWind,
time,status,PA,status,PR,status,RH,status,SR,status,TA,status,DirAvg,status,SpdAvg,
2016-04-11, 07:58:04,VALID,919.145,VALID,0,VALID,104,VALID,121.516,VALID,21.2242,VALID,13,VALID,0,
2016-04-11, 07:59:04,VALID,919.182,VALID,0,VALID,104,VALID,132.153,VALID,21.2242,VALID,22,VALID,0,
2016-04-11, 08:00:04,VALID,919.187,VALID,0,VALID,104,VALID,133.872,VALID,21.2632,VALID,24,VALID,0,
2016-04-11, 08:01:04,VALID,919.177,VALID,0,VALID,104,VALID,136.558,VALID,21.2648,VALID,24,VALID,0,
2016-04-11, 08:02:04,VALID,919.206,VALID,0,VALID,104,VALID,135.806,VALID,21.3022,VALID,24,VALID,0,
2016-04-11, 08:03:04,VALID,919.208,VALID,0,VALID,104,VALID,126.781,VALID,21.3217,VALID,4,VALID,0,
2016-04-11, 08:04:04,VALID,919.254,VALID,0,VALID,104,VALID,127.748,VALID,21.4388,VALID,44,VALID,0,
2016-04-11, 08:05:04,VALID,919.259,VALID,0,VALID,104,VALID,115.714,VALID,21.4778,VALID,19,VALID,0,
2016-04-11, 08:22:04,VALID,919.691,VALID,0,VALID,104,VALID,86.9199,VALID,21.2616,VALID,19,VALID,0,
2016-04-11, 08:25:04,VALID,919.737,VALID,0,VALID,104,VALID,108.73,VALID,21.2811,VALID,22,VALID,1.60977,
2016-04-11, 08:26:04,VALID,919.744,VALID,0.2,VALID,104,VALID,129.144,VALID,21.3201,VALID,35,VALID,1.7668,
2016-04-11, 08:27:04,VALID,919.729,VALID,0,VALID,104,VALID,134.946,VALID,21.3608,VALID,21,VALID,1.64258,
2016-04-11, 08:28:04,VALID,919.74,VALID,0,VALID,104,VALID,147.624,VALID,21.3981,VALID,24,VALID,1.56641,
2016-04-11, 08:29:04,VALID,919.782,VALID,0,VALID,104,VALID,150.847,VALID,21.4372,VALID,13,VALID,1.05547,
2016-04-11, 08:30:04,VALID,919.764,VALID,0.2,VALID,104,VALID,164.063,VALID,21.3981,VALID,10,VALID,1.03867,
2016-04-11, 08:31:04,VALID,919.786,VALID,0,VALID,104,VALID,173.732,VALID,21.3981,VALID,310,VALID,0.0289063,
2016-04-11, 08:32:04,VALID,919.781,VALID,0,VALID,104,VALID,179.427,VALID,21.4372,VALID,338,VALID,0,
2016-04-11, 08:33:04,VALID,919.812,VALID,0,VALID,104,VALID,173.84,VALID,21.5347,VALID,17,VALID,1.08164,
2016-04-11, 08:34:04,VALID,919.831,VALID,0,VALID,104,VALID,206.18,VALID,21.5737,VALID,17,VALID,1.08945,
2016-04-11, 08:35:04,VALID,919.847,VALID,0.2,VALID,104,VALID,263.446,VALID,21.4957,VALID,31,VALID,2.0832,
2016-04-11, 08:36:04,VALID,919.859,VALID,0,VALID,104,VALID,203.708,VALID,21.5542,VALID,29,VALID,1.7625,
2016-04-11, 08:37:04,VALID,919.86,VALID,0,VALID,104,VALID,195.221,VALID,21.6518,VALID,342,VALID,1.61914,
2016-04-11, 08:38:04,VALID,919.859,VALID,0,VALID,104,VALID,207.147,VALID,21.6339,VALID,34,VALID,1.7457,
2016-04-11, 08:39:04,VALID,919.901,VALID,0.2,VALID,104,VALID,170.187,VALID,21.6323,VALID,342,VALID,1.48828,
2016-04-11, 08:40:04,VALID,919.928,VALID,0,VALID,104,VALID,158.476,VALID,21.7315,VALID,14,VALID,0.531641,
2016-04-11, 08:41:04,VALID,919.923,VALID,0,VALID,104,VALID,174.27,VALID,21.7298,VALID,51,VALID,0.642969,
2016-04-11, 08:42:04,VALID,919.937,VALID,0.2,VALID,104,VALID,227.238,VALID,21.7883,VALID,51,VALID,1.10703,
2016-04-11, 08:43:04,VALID,919.954,VALID,0,VALID,104,VALID,256.999,VALID,21.8079,VALID,16,VALID,1.23828,
2016-04-11, 08:44:04,VALID,919.982,VALID,0,VALID,104,VALID,214.99,VALID,21.7883,VALID,4,VALID,1.39023,
2016-04-11, 08:45:04,VALID,919.992,VALID,0,VALID,104,VALID,161.699,VALID,21.8664,VALID,50,VALID,1.46875,
2016-04-11, 08:46:04,VALID,920.008,VALID,0,VALID,104,VALID,163.203,VALID,21.9444,VALID,4,VALID,0,
2016-04-11, 08:47:04,VALID,920.009,VALID,0.2,VALID,104,VALID,181.683,VALID,21.7867,VALID,302,VALID,0.75,
2016-04-11, 08:48:04,VALID,920.056,VALID,0.2,VALID,104,VALID,205.32,VALID,21.7883,VALID,14,VALID,1.59766,
2016-04-11, 08:49:04,VALID,920.059,VALID,0.2,VALID,104,VALID,213.7,VALID,21.6518,VALID,19,VALID,1.59766,
2016-04-11, 08:50:04,VALID,920.035,VALID,0.2,VALID,104,VALID,224.015,VALID,21.6128,VALID,32,VALID,2.60781,
2016-04-11, 08:51:04,VALID,920.077,VALID,0.2,VALID,104,VALID,232.61,VALID,21.5721,VALID,315,VALID,1.41602,
2016-04-11, 08:52:04,VALID,920.123,VALID,0.2,VALID,104,VALID,246.9,VALID,21.5737,VALID,357,VALID,1.78281,
2016-04-11, 08:53:04,VALID,920.138,VALID,0.4,VALID,104,VALID,234.329,VALID,21.5721,VALID,20,VALID,1.0082,
2016-04-11, 08:54:04,VALID,920.13,VALID,0.2,VALID,104,VALID,215.312,VALID,21.6713,VALID,50,VALID,1.41211,
2016-04-11, 08:55:04,VALID,920.196,VALID,0.2,VALID,104,VALID,191.782,VALID,21.6111,VALID,22,VALID,1.19609,
2016-04-11, 08:56:04,VALID,920.199,VALID,0,VALID,104,VALID,184.584,VALID,21.6891,VALID,338,VALID,0.667578,
2016-04-11, 08:57:04,VALID,920.236,VALID,0.2,VALID,104,VALID,165.137,VALID,21.5331,VALID,23,VALID,1.06562,
2016-04-11, 08:58:04,VALID,920.254,VALID,0,VALID,104,VALID,152.566,VALID,21.5136,VALID,64,VALID,0.228516,
2016-04-11, 08:59:04,VALID,920.293,VALID,0.2,VALID,104,VALID,136.235,VALID,21.5721,VALID,55,VALID,0,
2016-04-11, 09:00:04,VALID,920.27,VALID,0,VALID,104,VALID,126.028,VALID,21.5542,VALID,18,VALID,0,
2016-04-11, 09:01:04,VALID,920.303,VALID,0.2,VALID,104,VALID,120.227,VALID,21.5136,VALID,27,VALID,0,
2016-04-11, 09:02:04,VALID,920.306,VALID,0,VALID,104,VALID,115.177,VALID,21.5136,VALID,20,VALID,0,
2016-04-11, 09:03:04,VALID,920.313,VALID,0,VALID,104,VALID,115.822,VALID,21.4355,VALID,2,VALID,0,
2016-04-11, 09:04:04,VALID,920.316,VALID,0.2,VALID,104,VALID,143.112,VALID,21.3786,VALID,5,VALID,0,
2016-04-11, 09:05:04,VALID,920.278,VALID,0,VALID,104,VALID,160.839,VALID,21.3965,VALID,350,VALID,0,
2016-04-11, 09:06:04,VALID,920.296,VALID,0.2,VALID,104,VALID,158.798,VALID,21.3591,VALID,18,VALID,1.28164,
2016-04-11, 09:07:04,VALID,920.328,VALID,0.2,VALID,104,VALID,143.004,VALID,21.3396,VALID,338,VALID,0.738281,
2016-04-11, 09:08:04,VALID,920.309,VALID,0,VALID,104,VALID,131.508,VALID,21.26,VALID,307,VALID,0,
2016-04-11, 09:09:04,VALID,920.368,VALID,0.2,VALID,104,VALID,109.268,VALID,21.3201,VALID,310,VALID,0,
2016-04-11, 09:12:04,VALID,920.446,VALID,0,VALID,104,VALID,123.45,VALID,21.2632,VALID,247,VALID,0,
2016-04-11, 09:13:04,VALID,920.471,VALID,0.2,VALID,104,VALID,141.607,VALID,21.1852,VALID,242,VALID,0,
2016-04-11, 09:14:04,VALID,920.425,VALID,0,VALID,104,VALID,173.41,VALID,21.164,VALID,242,VALID,0,
2016-04-11, 09:15:04,VALID,920.471,VALID,0,VALID,104,VALID,159.228,VALID,21.1429,VALID,216,VALID,0,
2016-04-11, 09:16:04,VALID,920.471,VALID,0,VALID,104,VALID,139.244,VALID,21.2811,VALID,202,VALID,0,
2016-04-11, 09:17:04,VALID,920.445,VALID,0.2,VALID,104,VALID,123.02,VALID,21.2795,VALID,259,VALID,0,
2016-04-11, 09:18:04,VALID,920.504,VALID,0,VALID,104,VALID,110.879,VALID,21.2616,VALID,259,VALID,0,
2016-04-11, 09:19:04,VALID,920.481,VALID,0,VALID,104,VALID,104.97,VALID,21.2811,VALID,111,VALID,0,
2016-04-11, 09:20:04,VALID,920.518,VALID,0.2,VALID,104,VALID,107.871,VALID,21.2811,VALID,181,VALID,1.73281,
2016-04-11, 09:21:04,VALID,920.514,VALID,0,VALID,104,VALID,117.111,VALID,21.1429,VALID,247,VALID,2.58555,
2016-04-11, 09:22:04,VALID,920.52,VALID,0,VALID,104,VALID,135.376,VALID,21.2226,VALID,251,VALID,1.51641,
2016-04-11, 09:23:04,VALID,920.533,VALID,0,VALID,104,VALID,177.708,VALID,21.2405,VALID,242,VALID,0.457031,
2016-04-11, 09:24:04,VALID,920.515,VALID,0,VALID,104,VALID,196.94,VALID,21.2616,VALID,82,VALID,0,
2016-04-11, 09:25:04,VALID,920.504,VALID,0,VALID,104,VALID,178.782,VALID,21.1234,VALID,233,VALID,1.25039,
2016-04-11, 09:26:04,VALID,920.52,VALID,0,VALID,104,VALID,149.343,VALID,21.1445,VALID,248,VALID,1.31562,
2016-04-11, 09:27:04,VALID,920.549,VALID,0,VALID,104,VALID,161.914,VALID,21.0665,VALID,250,VALID,1.98711,
2016-04-11, 09:28:04,VALID,920.527,VALID,0.2,VALID,104,VALID,187.162,VALID,20.9495,VALID,247,VALID,2.69141,
2016-04-11, 09:29:04,VALID,920.462,VALID,0.2,VALID,104,VALID,196.188,VALID,20.891,VALID,264,VALID,1.10469,
2016-04-11, 09:30:04,VALID,920.388,VALID,0.2,VALID,104,VALID,196.402,VALID,20.93,VALID,286,VALID,0,
2016-04-11, 09:31:04,VALID,920.392,VALID,0,VALID,104,VALID,192.964,VALID,20.9511,VALID,283,VALID,1.34844,
2016-04-11, 09:32:04,VALID,920.373,VALID,0,VALID,104,VALID,190.815,VALID,20.8699,VALID,108,VALID,0.00625,
2016-04-11, 09:33:04,VALID,920.365,VALID,0.2,VALID,104,VALID,192.427,VALID,20.8504,VALID,31,VALID,0.580078,
2016-04-11, 09:34:04,VALID,920.338,VALID,0.2,VALID,104,VALID,196.725,VALID,20.8504,VALID,160,VALID,0,
2016-04-11, 09:35:04,VALID,920.384,VALID,0,VALID,104,VALID,202.956,VALID,20.8714,VALID,163,VALID,0,
2016-04-11, 09:36:04,VALID,920.381,VALID,0.2,VALID,104,VALID,209.08,VALID,20.8129,VALID,192,VALID,0,
2016-04-11, 09:37:04,VALID,920.349,VALID,0.2,VALID,104,VALID,217.891,VALID,20.7349,VALID,203,VALID,0,
2016-04-11, 09:38:04,VALID,920.347,VALID,0.2,VALID,104,VALID,225.519,VALID,20.7154,VALID,166,VALID,0,
2016-04-11, 09:39:04,VALID,920.33,VALID,0.2,VALID,104,VALID,236.585,VALID,20.5984,VALID,149,VALID,0,
2016-04-11, 09:40:04,VALID,920.303,VALID,0.2,VALID,104,VALID,251.09,VALID,20.5984,VALID,135,VALID,0,
2016-04-11, 09:41:04,VALID,920.302,VALID,0.2,VALID,104,VALID,268.603,VALID,20.6943,VALID,143,VALID,0,
2016-04-11, 09:42:04,VALID,920.273,VALID,0.2,VALID,104,VALID,290.628,VALID,20.717,VALID,140,VALID,0,
2016-04-11, 09:43:04,VALID,920.256,VALID,0,VALID,104,VALID,315.447,VALID,20.6179,VALID,155,VALID,0,
2016-04-11, 09:44:04,VALID,920.198,VALID,0.2,VALID,104,VALID,330.596,VALID,20.6748,VALID,91,VALID,0,
2016-04-11, 09:45:04,VALID,920.189,VALID,0.2,VALID,104,VALID,344.349,VALID,20.7349,VALID,104,VALID,0,
2016-04-11, 09:46:04,VALID,920.128,VALID,0,VALID,104,VALID,362.721,VALID,20.8519,VALID,100,VALID,1.33945,
2016-04-11, 09:47:04,VALID,920.066,VALID,0.2,VALID,104,VALID,372.391,VALID,20.93,VALID,74,VALID,1.13633,
2016-04-11, 09:48:04,VALID,920.044,VALID,0,VALID,104,VALID,372.069,VALID,20.7934,VALID,117,VALID,1.19414,
2016-04-11, 09:49:04,VALID,919.998,VALID,0.2,VALID,104,VALID,365.945,VALID,20.8129,VALID,144,VALID,0.333203,
2016-04-11, 09:50:04,VALID,919.971,VALID,0,VALID,104,VALID,355.738,VALID,20.969,VALID,113,VALID,0.498047,
2016-04-11, 09:51:04,VALID,919.876,VALID,0,VALID,104,VALID,347.142,VALID,20.93,VALID,85,VALID,1.90078,
2016-04-11, 09:52:04,VALID,919.837,VALID,0.2,VALID,104,VALID,344.994,VALID,20.891,VALID,102,VALID,1.46016,
2016-04-11, 09:53:04,VALID,919.802,VALID,0,VALID,104,VALID,349.184,VALID,21.0454,VALID,269,VALID,0,
2016-04-11, 09:54:04,VALID,919.755,VALID,0,VALID,104,VALID,357.242,VALID,21.086,VALID,126,VALID,0.305078,
2016-04-11, 09:55:04,VALID,919.752,VALID,0.2,VALID,104,VALID,373.465,VALID,21.086,VALID,113,VALID,1.51875,
2016-04-11, 09:56:04,VALID,919.675,VALID,0,VALID,104,VALID,385.284,VALID,20.969,VALID,95,VALID,1.54102,
2016-04-11, 09:57:04,VALID,919.656,VALID,0,VALID,104,VALID,388.83,VALID,21.0454,VALID,133,VALID,0.449219,
2016-04-11, 09:58:04,VALID,919.672,VALID,0,VALID,104,VALID,396.565,VALID,21.0259,VALID,131,VALID,1.66602,
2016-04-11, 09:59:04,VALID,919.65,VALID,0,INVALID,109.122,VALID,407.739,VALID,20.9674,VALID,142,VALID,1.66797,
2016-04-11, 10:00:04,VALID,919.616,VALID,0,INVALID,109.19,VALID,421.814,VALID,21.0064,VALID,111,VALID,1.1875,
2016-04-11, 10:01:04,VALID,919.539,VALID,0,INVALID,109.266,VALID,442.443,VALID,21.1039,VALID,101,VALID,1.16367,
2016-04-11, 10:02:04,VALID,919.557,VALID,0,INVALID,109.625,VALID,459.741,VALID,21.1234,VALID,116,VALID,1.2043,
2016-04-11, 10:03:04,VALID,919.465,VALID,0,INVALID,109.869,VALID,460.923,VALID,21.2405,VALID,74,VALID,1.1293,
2016-04-11, 10:04:04,VALID,919.432,VALID,0,INVALID,110.174,VALID,481.121,VALID,21.338,VALID,42,VALID,1.21445,
2016-04-11, 10:05:04,VALID,919.388,VALID,0,INVALID,110.235,VALID,547.95,VALID,21.5331,VALID,43,VALID,2.20156,
2016-04-11, 10:06:04,VALID,919.42,VALID,0,INVALID,110.479,VALID,553.644,VALID,21.5136,VALID,47,VALID,1.96836,
2016-04-11, 10:07:04,VALID,919.37,VALID,0,INVALID,110.288,VALID,550.314,VALID,21.59,VALID,49,VALID,1.92773,
2016-04-11, 10:08:04,VALID,919.367,VALID,0,INVALID,110.28,VALID,671.292,VALID,21.7867,VALID,29,VALID,1.65234,
2016-04-11, 10:09:04,VALID,919.393,VALID,0,INVALID,109.983,VALID,608.654,VALID,21.785,VALID,38,VALID,1.10508,
2016-04-11, 10:10:04,VALID,919.348,VALID,0,INVALID,110.143,VALID,548.702,VALID,22.0013,VALID,1,VALID,1.97148,
2016-04-11, 10:11:04,VALID,919.333,VALID,0,INVALID,109.792,VALID,456.84,VALID,22.0598,VALID,32,VALID,0.429688,
2016-04-11, 10:12:04,VALID,919.312,VALID,0,INVALID,109.754,VALID,491.328,VALID,22.1769,VALID,52,VALID,1.35312,
2016-04-11, 10:13:04,VALID,919.271,VALID,0,INVALID,109.968,VALID,406.772,VALID,22.2957,VALID,333,VALID,0.176953,
2016-04-11, 10:14:04,VALID,919.249,VALID,0,INVALID,109.488,VALID,408.491,VALID,22.2957,VALID,358,VALID,0,
2016-04-11, 10:15:04,VALID,919.219,VALID,0,VALID,104,VALID,434.17,VALID,22.2957,VALID,22,VALID,0,
2016-04-11, 10:16:04,VALID,919.168,VALID,0,VALID,104,VALID,508.949,VALID,22.255,VALID,55,VALID,0,
2016-04-11, 10:17:04,VALID,919.175,VALID,0,VALID,104,VALID,523.883,VALID,22.3542,VALID,55,VALID,0,
2016-04-11, 10:18:04,VALID,919.131,VALID,0,INVALID,109.038,VALID,520.123,VALID,22.4713,VALID,23,VALID,0,
2016-04-11, 10:19:04,VALID,919.135,VALID,0,VALID,104,VALID,476.287,VALID,22.5494,VALID,23,VALID,0.0140625,
2016-04-11, 10:20:04,VALID,919.121,VALID,0,VALID,104,VALID,534.197,VALID,22.4696,VALID,55,VALID,0,
2016-04-11, 10:21:04,VALID,919.101,VALID,0,VALID,104,VALID,472.204,VALID,22.4696,VALID,42,VALID,1.74805,
2016-04-11, 10:22:04,VALID,919.095,VALID,0,VALID,104,VALID,447.17,VALID,22.5689,VALID,63,VALID,0,
2016-04-11, 10:23:04,VALID,919.062,VALID,0,VALID,104,VALID,557.512,VALID,22.6665,VALID,28,VALID,0,
2016-04-11, 10:24:04,VALID,919.019,VALID,0,VALID,102.024,VALID,580.505,VALID,22.6452,VALID,56,VALID,0,
2016-04-11, 10:25:04,VALID,918.964,VALID,0,VALID,96.8098,VALID,614.456,VALID,22.6452,VALID,67,VALID,0,
2016-04-11, 10:26:04,VALID,918.94,VALID,0,VALID,92.5406,VALID,614.993,VALID,22.6647,VALID,63,VALID,0,
2016-04-11, 10:27:04,VALID,918.884,VALID,0,VALID,101.818,VALID,790.767,VALID,22.7641,VALID,54,VALID,0,
2016-04-11, 10:28:04,VALID,918.874,VALID,0,VALID,101.651,VALID,508.626,VALID,22.8031,VALID,105,VALID,0,
2016-04-11, 10:29:04,VALID,918.871,VALID,0,VALID,96.2533,VALID,443.947,VALID,22.8226,VALID,115,VALID,0,
2016-04-11, 10:30:04,VALID,918.883,VALID,0,VALID,100.69,VALID,887.249,VALID,22.9007,VALID,65,VALID,0,
2016-04-11, 10:31:04,VALID,918.888,VALID,0,VALID,103.747,VALID,561.38,VALID,23.0568,VALID,109,VALID,0,
2016-04-11, 10:32:04,VALID,918.892,VALID,0,VALID,96.9927,VALID,683.863,VALID,23.1136,VALID,209,VALID,0,
2016-04-11, 10:33:04,VALID,918.85,VALID,0,VALID,88.4392,VALID,712.12,VALID,23.2307,VALID,195,VALID,0,
2016-04-11, 10:34:04,VALID,918.844,VALID,0,VALID,97.229,VALID,755.741,VALID,23.3461,VALID,190,VALID,0,
2016-04-11, 10:35:04,VALID,918.798,VALID,0,VALID,82.2643,VALID,563.529,VALID,23.4064,VALID,180,VALID,0,
2016-04-11, 10:36:04,VALID,918.711,VALID,0,VALID,91.9003,VALID,642.606,VALID,23.4437,VALID,165,VALID,0,
2016-04-11, 10:37:04,VALID,918.684,VALID,0,VALID,76.1274,VALID,777.981,VALID,23.4437,VALID,163,VALID,0,
2016-04-11, 10:38:04,VALID,918.673,VALID,0,VALID,75.1669,VALID,562.347,VALID,23.5217,VALID,161,VALID,0,
2016-04-11, 10:39:04,VALID,918.642,VALID,0,VALID,77.1261,VALID,791.089,VALID,23.6797,VALID,161,VALID,0,
2016-04-11, 10:40:04,VALID,918.68,VALID,0,VALID,79.1539,VALID,1070.65,VALID,23.834,VALID,107,VALID,0,
2016-04-11, 10:41:04,VALID,918.665,VALID,0,VALID,78.7118,VALID,1027.78,VALID,24.0506,VALID,72,VALID,0,
2016-04-11, 10:42:04,VALID,918.654,VALID,0,VALID,76.9279,VALID,1064.74,VALID,24.2635,VALID,126,VALID,0,
2016-04-11, 10:43:04,VALID,918.604,VALID,0,VALID,76.4705,VALID,1063.56,VALID,24.4801,VALID,191,VALID,0,
2016-04-11, 10:44:04,VALID,918.659,VALID,0,VALID,78.3382,VALID,730.6,VALID,24.6754,VALID,192,VALID,0,
2016-04-11, 10:45:04,VALID,918.633,VALID,0,VALID,77.9189,VALID,755.741,VALID,24.8316,VALID,192,VALID,0,
2016-04-11, 10:46:04,VALID,918.644,VALID,0,VALID,79.7257,VALID,1036.48,VALID,24.9469,VALID,156,VALID,0,
2016-04-11, 10:47:04,VALID,918.668,VALID,0,VALID,75.8606,VALID,1015.1,VALID,25.0445,VALID,191,VALID,0,
2016-04-11, 10:48:04,VALID,918.674,VALID,0,VALID,74.6409,VALID,1031.22,VALID,25.1226,VALID,185,VALID,0.528906,
2016-04-11, 10:49:04,VALID,918.661,VALID,0,VALID,73.322,VALID,907.126,VALID,25.1831,VALID,138,VALID,0,
2016-04-11, 10:50:04,VALID,918.682,VALID,0,VALID,72.5444,VALID,688.59,VALID,25.064,VALID,144,VALID,0,
2016-04-11, 10:51:04,VALID,918.629,VALID,0,VALID,72.2852,VALID,599.951,VALID,25.064,VALID,9,VALID,0,
2016-04-11, 10:52:04,VALID,918.661,VALID,0,VALID,70.8749,VALID,535.379,VALID,24.9469,VALID,125,VALID,0.646484,
2016-04-11, 10:53:04,VALID,918.687,VALID,0,VALID,71.7516,VALID,502.073,VALID,24.6735,VALID,116,VALID,0,
2016-04-11, 10:54:04,VALID,918.65,VALID,0,VALID,75.548,VALID,516.577,VALID,24.6326,VALID,187,VALID,0,
2016-04-11, 10:55:04,VALID,918.663,VALID,0,VALID,76.0512,VALID,568.256,VALID,24.7107,VALID,190,VALID,0,
2016-04-11, 10:56:04,VALID,918.655,VALID,0,VALID,76.1656,VALID,641.316,VALID,24.8492,VALID,198,VALID,0,
2016-04-11, 10:57:04,VALID,918.662,VALID,0,VALID,75.022,VALID,571.909,VALID,24.9078,VALID,209,VALID,0,
2016-04-11, 10:58:04,VALID,918.639,VALID,0,VALID,76.8974,VALID,564.388,VALID,24.9469,VALID,208,VALID,0.572266,
2016-04-11, 10:59:04,VALID,918.578,VALID,0,VALID,73.1695,VALID,540.214,VALID,24.9859,VALID,197,VALID,0.421875,
2016-04-11, 11:00:04,VALID,918.55,VALID,0,VALID,76.1351,VALID,501.965,VALID,24.9859,VALID,212,VALID,0.00585938,
2016-04-11, 11:01:04,VALID,918.538,VALID,0,VALID,74.7171,VALID,472.419,VALID,24.945,VALID,196,VALID,0.172656,
2016-04-11, 11:02:04,VALID,918.498,VALID,0,VALID,74.6561,VALID,451.897,VALID,24.9255,VALID,218,VALID,0.300781,
2016-04-11, 11:03:04,VALID,918.472,VALID,0,VALID,74.9534,VALID,436.104,VALID,24.8278,VALID,205,VALID,0,
2016-04-11, 11:04:04,VALID,918.447,VALID,0,VALID,73.7337,VALID,439.649,VALID,24.8278,VALID,196,VALID,0,
2016-04-11, 11:05:04,VALID,918.406,VALID,0,VALID,73.2991,VALID,454.154,VALID,24.8278,VALID,188,VALID,0,
2016-04-11, 11:06:04,VALID,918.369,VALID,0,VALID,73.4516,VALID,480.477,VALID,24.8297,VALID,183,VALID,0,
2016-04-11, 11:07:04,VALID,918.36,VALID,0,VALID,75.2202,VALID,486.923,VALID,24.8474,VALID,211,VALID,0,
2016-04-11, 11:08:04,VALID,918.323,VALID,0,VALID,76.7068,VALID,498.634,VALID,24.8297,VALID,176,VALID,0,
2016-04-11, 11:09:04,VALID,918.324,VALID,0,VALID,77.8961,VALID,522.164,VALID,24.8474,VALID,180,VALID,0,
2016-04-11, 11:10:04,VALID,918.305,VALID,0,VALID,77.3091,VALID,510.668,VALID,24.8278,VALID,167,VALID,0.0503906,
2016-04-11, 11:11:04,VALID,918.294,VALID,0,VALID,77.5301,VALID,569.975,VALID,24.8278,VALID,167,VALID,0,
2016-04-11, 11:12:04,VALID,918.302,VALID,0,VALID,74.2749,VALID,729.311,VALID,24.8492,VALID,99,VALID,0,
2016-04-11, 11:13:04,VALID,918.291,VALID,0,VALID,76.2951,VALID,544.512,VALID,24.7907,VALID,87,VALID,0,
2016-04-11, 11:14:04,VALID,918.281,VALID,0,VALID,77.1795,VALID,560.413,VALID,24.7711,VALID,172,VALID,0,
2016-04-11, 11:15:04,VALID,918.253,VALID,0,VALID,77.0422,VALID,523.776,VALID,24.7907,VALID,168,VALID,0,
2016-04-11, 11:16:04,VALID,918.191,VALID,0,VALID,76.8593,VALID,517.759,VALID,24.9274,VALID,162,VALID,0,
2016-04-11, 11:17:04,VALID,918.166,VALID,0,VALID,76.783,VALID,537.206,VALID,25.0055,VALID,91,VALID,0,
2016-04-11, 11:18:04,VALID,918.113,VALID,0,VALID,78.1553,VALID,631.969,VALID,25.0036,VALID,80,VALID,0.355859,
2016-04-11, 11:19:04,VALID,918.073,VALID,0,VALID,75.67,VALID,547.52,VALID,25.1402,VALID,176,VALID,0,
2016-04-11, 11:20:04,VALID,918.08,VALID,0,VALID,76.5925,VALID,561.058,VALID,25.2769,VALID,175,VALID,0,
2016-04-11, 11:21:04,VALID,918.018,VALID,0,VALID,74.0767,VALID,690.632,VALID,25.2203,VALID,137,VALID,0,
2016-04-11, 11:22:04,VALID,918.01,VALID,0,VALID,73.2915,VALID,669.788,VALID,25.1617,VALID,137,VALID,0,
2016-04-11, 11:23:04,VALID,917.951,VALID,0,VALID,77.1109,VALID,945.697,VALID,25.1207,VALID,124,VALID,0,
2016-04-11, 11:24:04,VALID,917.937,VALID,0,VALID,75.5328,VALID,617.357,VALID,25.2183,VALID,158,VALID,0.2,
2016-04-11, 11:25:04,VALID,917.905,VALID,0,VALID,76.1351,VALID,635.729,VALID,25.357,VALID,172,VALID,0,
2016-04-11, 11:26:04,VALID,917.857,VALID,0,VALID,75.1135,VALID,860.281,VALID,25.355,VALID,169,VALID,0.10625,
2016-04-11, 11:27:04,VALID,917.833,VALID,0,VALID,71.9879,VALID,1107.61,VALID,25.4527,VALID,157,VALID,0.433594,
2016-04-11, 11:28:04,VALID,917.805,VALID,0,VALID,72.0489,VALID,1089.78,VALID,25.355,VALID,152,VALID,0.432813,
2016-04-11, 11:29:04,VALID,917.757,VALID,0,VALID,76.379,VALID,1160.79,VALID,25.316,VALID,120,VALID,0.386719,
2016-04-11, 11:30:04,VALID,917.771,VALID,0,VALID,76.7373,VALID,1166.81,VALID,25.355,VALID,154,VALID,0.00195313,
2016-04-11, 11:31:04,VALID,917.758,VALID,0,VALID,77.4234,VALID,1020.58,VALID,25.5308,VALID,160,VALID,0.0195313,
2016-04-11, 11:32:04,VALID,917.783,VALID,0,VALID,74.2063,VALID,711.046,VALID,25.7651,VALID,125,VALID,0.460938,
2016-04-11, 11:33:04,VALID,917.791,VALID,0,VALID,68.7632,VALID,1085.8,VALID,25.8628,VALID,116,VALID,0.0289063,
2016-04-11, 11:34:04,VALID,917.758,VALID,0,VALID,69.5942,VALID,1179.92,VALID,25.8237,VALID,138,VALID,0,
2016-04-11, 11:35:04,VALID,917.734,VALID,0,VALID,71.561,VALID,1216.77,VALID,25.8237,VALID,141,VALID,0,
2016-04-11, 11:36:04,VALID,917.712,VALID,0,VALID,68.3439,VALID,1223.97,VALID,26.1558,VALID,141,VALID,0,
2016-04-11, 11:37:04,VALID,917.717,VALID,0,VALID,70.9359,VALID,1197.11,VALID,26.312,VALID,135,VALID,0.494141,
2016-04-11, 11:38:04,VALID,917.663,VALID,0,VALID,67.0861,VALID,1114.7,VALID,26.4097,VALID,134,VALID,0.0777344,
2016-04-11, 11:39:04,VALID,917.643,VALID,0,VALID,66.2094,VALID,1000.49,VALID,26.3882,VALID,82,VALID,0.269922,
2016-04-11, 11:40:04,VALID,917.656,VALID,0,VALID,69.9525,VALID,1099.34,VALID,26.4292,VALID,100,VALID,0,
2016-04-11, 11:41:04,VALID,917.631,VALID,0,VALID,67.2843,VALID,1033.58,VALID,26.605,VALID,83,VALID,0,
2016-04-11, 11:42:04,VALID,917.586,VALID,0,VALID,69.152,VALID,1015.21,VALID,26.9156,VALID,97,VALID,0,
2016-04-11, 11:43:04,VALID,917.57,VALID,0,VALID,67.2462,VALID,727.269,VALID,27.2302,VALID,104,VALID,0,
2016-04-11, 11:44:04,VALID,917.548,VALID,0,VALID,66.5829,VALID,336.721,VALID,27.1695,VALID,95,VALID,0.132422,
2016-04-11, 11:45:04,VALID,917.552,VALID,0,VALID,65.0201,VALID,499.386,VALID,27.1109,VALID,136,VALID,0.405078,
2016-04-11, 11:46:04,VALID,917.546,VALID,0,VALID,66.3618,VALID,488.75,VALID,26.8785,VALID,145,VALID,0.0875,
2016-04-11, 11:47:04,VALID,917.564,VALID,0,VALID,69.5637,VALID,818.809,VALID,26.7223,VALID,138,VALID,0.781641,
2016-04-11, 11:48:04,VALID,917.53,VALID,0,VALID,65.4547,VALID,580.505,VALID,26.564,VALID,154,VALID,0.633984,
2016-04-11, 11:49:04,VALID,917.518,VALID,0,VALID,70.6005,VALID,676.235,VALID,26.3491,VALID,145,VALID,0.0046875,
2016-04-11, 11:50:04,VALID,917.49,VALID,0,VALID,72.8417,VALID,642.283,VALID,26.2319,VALID,138,VALID,0.323828,
2016-04-11, 11:51:04,VALID,917.495,VALID,0,VALID,69.1901,VALID,957.945,VALID,26.2319,VALID,164,VALID,0,
2016-04-11, 11:52:04,VALID,917.463,VALID,0,VALID,69.4188,VALID,716.31,VALID,26.273,VALID,154,VALID,0,
2016-04-11, 11:53:04,VALID,917.435,VALID,0,VALID,71.7745,VALID,954.292,VALID,26.4077,VALID,163,VALID,0.00820312,
2016-04-11, 11:54:04,VALID,917.425,VALID,0,VALID,71.1798,VALID,920.663,VALID,26.271,VALID,167,VALID,0.00664063,
2016-04-11, 11:55:04,VALID,917.426,VALID,0,VALID,69.3807,VALID,908.952,VALID,26.3686,VALID,205,VALID,0,
2016-04-11, 11:56:04,VALID,917.394,VALID,0,VALID,68.0924,VALID,904.977,VALID,26.31,VALID,149,VALID,0,
2016-04-11, 11:57:04,VALID,917.352,VALID,0,VALID,74.0615,VALID,903.473,VALID,26.3902,VALID,149,VALID,0,
2016-04-11, 11:58:04,VALID,917.343,VALID,0,VALID,69.6704,VALID,900.787,VALID,26.6246,VALID,149,VALID,0,
2016-04-11, 11:59:04,VALID,917.303,VALID,0,VALID,69.2511,VALID,905.514,VALID,26.8004,VALID,140,VALID,0.980078,
2016-04-11, 12:00:04,VALID,917.3,VALID,0,VALID,68.2143,VALID,905.836,VALID,26.5875,VALID,140,VALID,0.269922,
2016-04-11, 12:01:04,VALID,917.29,VALID,0,VALID,72.1099,VALID,884.563,VALID,26.6832,VALID,149,VALID,0.253516,
2016-04-11, 12:02:04,VALID,917.275,VALID,0,VALID,66.1484,VALID,875.645,VALID,26.7223,VALID,155,VALID,0,